User: anonymous   Login
Location: Unspecified
(0.0000°N, 0.0000°E)
Time: 19:17:37
(UTC+00:00)
Language:

STARLINK-32628 - Orbit

View from above orbital plane
View from above orbital plane
View from above satellite
View from above satellite

Ground track
Ground track

The orbit is defined by the following mean orbital elements,

1 62122U          26145.48065465 +.00000000 +00000-0 +90115-3 0 00001
2 62122  43.0024  62.4679 0001510 275.0722  84.9957 15.27595509    04
Epoch (UTC): 25 May 2026 11:32:08
Eccentricity: 0.0001510
inclination: 43.0024°
perigee height: 482 km
apogee height: 484 km
right ascension of ascending node: 62.4679°
argument of perigee: 275.0722°
revolutions per day: 15.27595509
mean anomaly at epoch: 84.9957°

The dashed part of the orbit path shows where the satellite is in the earth's shadow,  

DLR